Content
SEND FEEDBACK

Daily
Averages
Monthly
Summary
United States of America

CAMP QUEZON, GUAM


Home > North America > United States > Guam
Elevation: 82 meters     Latitude: 13 28N     Longitude: 144 48E

WEATHER
 
SELECT A DAY
Number of Records: 209,308;   Date Range: 1/1/95 - 9/18/14
 
SHARE

PRINT THIS DATA

[ ← Previous Day ]
WEATHER ALMANAC - 1 JULY, 2013
[ Next Day → ]
[ °F ]   °C
We're sorry. There is no daily almanac available for Camp Quezon, Guam on 1 July, 2013.
WEATHER BY HOUR - 1 JULY, 2013
[ °F ]   °C
Local TimeTemperatureDewpointHumidityBarometerVisibilityWind DirectionWind SpeedGust SpeedPrecipitationEventsConditions
12:25 AM26 °C24 °C89 %1012.5 hPa8 kmCalm2.03 mmRainLight Rain
12:41 AM26 °C24 °C89 %1012.2 hPa8 kmSW (230°)9.3 km/h2.03 mmMostly Cloudy
12:54 AM25.6 °C23.9 °C90 %1011.2 hPa8 kmCalm2.03 mmScattered Clouds
1:54 AM26.1 °C23.9 °C88 %1010.5 hPa16.1 kmESE (120°)7.4 km/hClear
2:54 AM26.1 °C23.9 °C88 %1010.2 hPa16.1 kmCalmClear
3:54 AM26.1 °C23.9 °C88 %1010.5 hPa16.1 kmCalmPartly Cloudy
4:54 AM26.1 °C23.9 °C88 %1010.2 hPa16.1 kmEast (90°)9.3 km/hClear
5:54 AM26.7 °C25 °C90 %1010.5 hPa16.1 kmEast (100°)9.3 km/h0 mmPartly Cloudy
6:54 AM27.2 °C24.4 °C85 %1010.8 hPa16.1 kmESE (120°)5.6 km/hPartly Cloudy
7:54 AM28.9 °C25.6 °C82 %1010.8 hPa16.1 kmEast (80°)9.3 km/hClear
8:54 AM30 °C24.4 °C72 %1011.2 hPa16.1 kmEast (90°)18.5 km/hPartly Cloudy
9:54 AM30.6 °C23.9 °C67 %1011.2 hPa16.1 kmEast (100°)18.5 km/hScattered Clouds
10:54 AM30.6 °C24.4 °C69 %1010.8 hPa16.1 kmESE (110°)16.7 km/h29.6 km/hPartly Cloudy
11:54 AM30.6 °C24.4 °C69 %1010.5 hPa16.1 kmEast (90°)20.4 km/hPartly Cloudy
12:09 PM31 °C25 °C70 %1011.5 hPa16.1 kmESE (110°)18.5 km/h29.6 km/hMostly Cloudy
12:37 PM31 °C25 °C70 %1011.2 hPa16.1 kmESE (110°)16.7 km/hScattered Clouds
12:54 PM30.6 °C24.4 °C69 %1010.2 hPa16.1 kmESE (110°)13 km/hScattered Clouds
1:54 PM30.6 °C24.4 °C69 %1009.8 hPa16.1 kmEast (100°)22.2 km/h29.6 km/hScattered Clouds
2:54 PM31.1 °C24.4 °C67 %1009.5 hPa16.1 kmESE (120°)16.7 km/hPartly Cloudy
3:19 PM31 °C24 °C66 %1009.8 hPa16.1 kmEast (100°)16.7 km/hMostly Cloudy
3:22 PM31 °C24 °C66 %1009.8 hPa16.1 kmESE (120°)16.7 km/hScattered Clouds
3:54 PM30.6 °C23.9 °C67 %1009.1 hPa16.1 kmEast (100°)14.8 km/hPartly Cloudy
4:54 PM30 °C24.4 °C72 %1009.5 hPa16.1 kmESE (110°)13 km/hPartly Cloudy
5:54 PM30 °C24.4 °C72 %1010.2 hPa16.1 kmEast (80°)13 km/hMostly Cloudy
6:54 PM28.3 °C23.9 °C77 %1010.5 hPa16.1 kmENE (60°)7.4 km/hPartly Cloudy
7:54 PM28.3 °C23.3 °C74 %1010.5 hPa16.1 kmEast (100°)5.6 km/hPartly Cloudy
8:54 PM28.3 °C23.9 °C77 %1010.8 hPa16.1 kmESE (110°)5.6 km/hPartly Cloudy
9:54 PM28.3 °C24.4 °C79 %1011.2 hPa16.1 kmCalmPartly Cloudy
10:54 PM27.8 °C25 °C85 %1011.2 hPa16.1 kmNE (50°)7.4 km/hPartly Cloudy
11:54 PM27.2 °C25 °C88 %1011.2 hPa16.1 kmNE (50°)7.4 km/hPartly Cloudy
Hourly data recorded from PGUM, located 0 kilometers away from Camp Quezon, Guam







STORIES FROM OUR PARTNERS